Zurück zum Katalog

STARLINK-32661

AktivKommunikationVLEO
NORAD 62899·PAYLOAD·🇺🇸 United States

Gestartet Feb 4, 2025 von Cape Canaveral Space Force Station

Loading…

Nächste Überflüge (nächste 24 Stunden)

TLE

AktuellSource: CelesTrak SupGP

Epoche: Sep 14, 2026, 20:43 UTC

1 62899C 25024W   26257.86368056 -.00008960  00000+0 -32460-3 0  2570
2 62899  43.0016 336.9533 0001477 272.0132 255.2468 15.27575897    17

Verfolge STARLINK-32661 in Echtzeit mit AllMySat

Download on the App Store